Date,TemperatureHighF,TemperatureAvgF,TemperatureLowF,DewpointHighF,DewpointAvgF,DewpointLowF,HumidityHigh,HumidityAvg,HumidityLow,PressureMaxIn,PressureMinIn,WindSpeedMaxMPH,WindSpeedAvgMPH,GustSpeedMaxMPH,PrecipitationSumIn
2013-12-1,57,51,47,40,36,31,70,55,43,30.18,29.78,112,6,112,0.00
2013-12-2,50,36,25,35,27,16,82,68,51,30.00,29.74,0,0,0,0.08
2013-12-3,26,21,14,20,12,4,82,69,53,30.33,29.99,0,0,0,0.00
2013-12-4,19,12,3,4,0,-4,71,58,42,30.49,30.34,0,0,0,0.00
2013-12-5,23,10,-4,6,-1,-11,73,62,39,30.50,30.28,0,0,0,0.00
2013-12-6,11,9,8,4,3,2,80,77,73,30.29,30.14,0,0,0,0.00
2013-12-7,8,1,-14,2,-7,-23,77,70,62,30.68,30.18,0,0,0,0.00
2013-12-8,18,-1,-18,7,-9,-26,78,68,61,30.84,30.62,0,0,0,0.02
2013-12-9,29,12,-5,15,3,-12,77,66,54,30.82,30.59,0,0,0,0.03
2013-12-10,38,23,7,22,14,2,82,70,52,30.60,30.46,0,0,0,0.01
2013-12-11,40,25,11,22,16,6,83,68,46,30.55,30.36,0,0,0,0.01
2013-12-12,44,33,20,28,19,11,71,57,38,30.39,30.17,0,0,0,0.00
2013-12-13,47,36,25,30,26,19,83,69,49,30.52,30.19,0,0,0,0.00
2013-12-14,44,34,24,28,24,19,83,68,49,30.58,30.43,0,0,0,0.00
2013-12-15,58,42,34,33,25,14,84,56,20,30.48,30.30,0,0,0,0.00
2013-12-16,54,37,26,27,22,18,80,57,28,30.53,30.34,0,0,0,0.00
2013-12-17,56,40,32,25,22,18,68,49,29,30.34,30.08,0,0,0,0.00
2013-12-18,41,35,29,30,26,22,87,70,55,30.10,29.94,0,0,0,0.00
2013-12-19,31,24,16,25,11,3,81,59,40,30.33,30.02,0,0,0,0.00
2013-12-20,47,31,18,36,22,3,81,68,48,30.24,29.86,0,0,0,0.06
2013-12-21,50,42,36,32,29,26,78,61,41,30.19,29.83,0,0,0,0.00
2013-12-22,54,42,34,36,30,26,77,64,38,30.35,30.14,0,0,0,0.00
2013-12-23,54,44,33,38,30,22,77,60,36,30.44,30.20,0,0,0,0.00
2013-12-24,47,34,26,28,24,17,85,67,39,30.60,30.44,0,0,0,0.00
2013-12-25,48,35,24,27,22,15,71,59,32,30.58,30.40,0,0,0,0.00
2013-12-26,55,39,26,27,23,19,77,54,28,30.46,30.25,0,0,0,0.00
2013-12-27,49,37,30,25,21,18,63,53,37,30.33,30.17,0,0,0,0.00
2013-12-28,46,34,25,22,17,12,70,53,26,30.53,30.30,0,0,0,0.00
2013-12-29,46,32,21,25,16,10,69,53,27,30.52,30.32,0,0,0,0.00
2013-12-30,48,39,31,25,21,14,70,50,26,30.33,30.19,0,0,0,0.00
2013-12-31,51,40,34,26,22,16,60,48,26,30.34,30.21,0,0,0,0.00